Weather History for Cherry Point, NC

Change the Weather History Date:

Saturday, May 3, 2014

  Actual Average Record
Temperature  
Mean Temperature 66 °F -  
Max Temperature 75 °F 74 °F 91 °F (2012)
Min Temperature 60 °F 54 °F 50 °F (2001)
Cooling Degree Days 2    
Growing Degree Days 16 (Base 50)    
Moisture  
Dew Point 54 °F    
Average Humidity 68    
Maximum Humidity 87    
Minimum Humidity 42    
Precipitation  
Precipitation 0.01 in - - ()
Sea Level Pressure  
Sea Level Pressure 29.89 in    
Wind  
Wind Speed 4 mph (SW)    
Max Wind Speed 14 mph    
Max Gust Speed -    
Visibility 10 miles    
Events      
Averages and records for this station are not official NWS values.
T = Trace of Precipitation, MM = Missing Value Source: NWS Daily Summary

Daily Weather History Graph

Daily Weather History Graph

Search for Another Location

Airport:

Trip Planner

Search our weather history database for the weather conditions in past years. The results will help you decide how hot, cold, wet, or windy it might be!

Date:

Astronomy

May. 03, 2014 Rise Set
Actual Time 6:14 AM EDT 7:54 PM EDT
Civil Twilight 5:47 AM EDT 8:21 PM EDT
Nautical Twilight 5:15 AM EDT 8:54 PM EDT
Astronomical Twilight 4:40 AM EDT 9:29 PM EDT
Moon 9:44 AM EDT (5/3) 11:57 PM EDT (5/3)
Length of Visible Light 14h 33m
Length of Day
13h 39m
Waxing Crescent, 19% of the Moon is Illuminated
May 3
Waxing Crescent
May 6
First Quarter
May 14
Full
May 21
Last Quarter
May 28
New

Hourly Weather History & Observations

Time (EDT) Temp. Dew Point Humidity Pressure Visibility Wind Dir Wind Speed Gust Speed Precip Events Conditions
12:54 AM 61.0 °F 55.0 °F 81% 29.90 in 10.0 mi SSW 4.6 mph - N/A   Overcast
1:54 AM 61.0 °F 55.9 °F 83% 29.89 in 10.0 mi Calm Calm - N/A   Overcast
2:54 AM 61.0 °F 55.9 °F 83% 29.88 in 10.0 mi SW 3.5 mph - N/A   Overcast
3:54 AM 61.0 °F 57.0 °F 87% 29.89 in 10.0 mi Calm Calm - 0.00 in   Overcast
4:54 AM 61.0 °F 57.0 °F 87% 29.90 in 10.0 mi Calm Calm - N/A   Overcast
5:54 AM 60.1 °F 55.0 °F 83% 29.90 in 10.0 mi Calm Calm - 0.01 in   Overcast
6:54 AM 60.1 °F 55.0 °F 83% 29.90 in 10.0 mi Calm Calm - N/A   Mostly Cloudy
7:54 AM 61.0 °F 55.0 °F 81% 29.91 in 10.0 mi Calm Calm - N/A   Partly Cloudy
8:54 AM 64.0 °F 54.0 °F 70% 29.92 in 10.0 mi West 6.9 mph - N/A   Partly Cloudy
9:54 AM 66.0 °F 52.0 °F 60% 29.91 in 10.0 mi WNW 5.8 mph - N/A   Partly Cloudy
10:54 AM 69.1 °F 51.1 °F 53% 29.91 in 10.0 mi North - - N/A   Scattered Clouds
11:54 AM 71.1 °F 51.1 °F 49% 29.90 in 10.0 mi WSW 6.9 mph - N/A   Scattered Clouds
12:54 PM 73.0 °F 48.9 °F 42% 29.88 in 10.0 mi Variable 3.5 mph - N/A   Scattered Clouds
1:54 PM 73.9 °F 51.1 °F 45% 29.87 in 10.0 mi Calm Calm - N/A   Partly Cloudy
2:54 PM 72.0 °F 53.1 °F 51% 29.86 in 10.0 mi South 4.6 mph - N/A   Mostly Cloudy
3:54 PM 72.0 °F 53.1 °F 51% 29.86 in 10.0 mi South 9.2 mph - N/A   Mostly Cloudy
4:54 PM 73.0 °F 51.1 °F 46% 29.85 in 10.0 mi South 13.8 mph - N/A   Clear
5:54 PM 71.1 °F 52.0 °F 51% 29.85 in 10.0 mi SSW 12.7 mph - N/A   Clear
6:54 PM 69.1 °F 52.0 °F 54% 29.86 in 10.0 mi SSW 11.5 mph - N/A   Partly Cloudy
7:54 PM 66.0 °F 55.0 °F 68% 29.88 in 10.0 mi SSW 9.2 mph - N/A   Partly Cloudy
8:54 PM 64.0 °F 55.9 °F 75% 29.88 in 10.0 mi South 3.5 mph - N/A   Clear
9:54 PM 63.0 °F 57.0 °F 81% 29.91 in 10.0 mi Calm Calm - N/A   Clear
10:54 PM 61.0 °F 57.0 °F 87% 29.92 in 10.0 mi SW 3.5 mph - N/A   Clear
11:54 PM 61.0 °F 57.0 °F 87% 29.93 in 10.0 mi Calm Calm - N/A   Clear